Silver Bay, MN

7:54 PM CDT on March 28, 2017 (GMT -0500)
Silver Bay Municipal

Weather History for KBFW - June, 2012

Change the Weather History Date:

Friday, June 15, 2012

  Actual Average Record
Temperature  
Mean Temperature 64 °F -  
Max Temperature 78 °F 66 °F 87 °F (2007)
Min Temperature 50 °F 43 °F 37 °F (1999)
Degree Days  
Heating Degree Days 1    
Growing Degree Days 14 (Base 50)    
Moisture  
Dew Point 53 °F    
Average Humidity 66    
Maximum Humidity 94    
Minimum Humidity 39    
Precipitation  
Precipitation 0.00 in - - ()
Sea Level Pressure  
Sea Level Pressure 29.94 in    
Wind  
Wind Speed 1 mph (WSW)    
Max Wind Speed 7 mph    
Max Gust Speed -    
Visibility 8 miles    
Events Fog    
Averages and records for this station are not official NWS values.
T = Trace of Precipitation, MM = Missing Value Source: NWS Daily Summary

Daily Weather History Graph

Daily Weather History Graph

Search for Another Location

Airport or City:

Trip Planner

Search our weather history database for the weather conditions in past years. The results will help you decide how hot, cold, wet, or windy it might be!

Date:

Astronomy

Jun. 15, 2012 Rise Set
Actual Time 5:08 AM CDT 9:03 PM CDT
Civil Twilight 4:28 AM CDT 9:44 PM CDT
Nautical Twilight 3:33 AM CDT 10:39 PM CDT
Astronomical Twilight 2:09 AM CDT 12:03 AM CDT
Moon 2:33 AM CDT (6/15) 5:36 PM CDT (6/15)
Length of Visible Light 17h 15m
Length of Day
15h 54m
Waning Crescent, 13% of the Moon is Illuminated
Jun 15
Waning Crescent
Jun 19
New
Jun 26
First Quarter
Jul 3
Full
Jul 10
Last Quarter

Hourly Weather History & Observations

Time (CDT) Temp. Dew Point Humidity Pressure Visibility Wind Dir Wind Speed Gust Speed Precip Events Conditions
12:14 AM 51.8 °F 48.2 °F 88% 29.85 in 0.5 mi Calm Calm - N/A Fog Fog
12:34 AM 51.8 °F 46.4 °F 82% 29.86 in 0.8 mi Calm Calm - N/A   Overcast
12:54 AM 50.0 °F 46.4 °F 87% 29.86 in 0.2 mi Calm Calm - N/A Fog Fog
1:14 AM 50.0 °F 46.4 °F 87% 29.86 in 0.5 mi Calm Calm - N/A Fog Fog
1:34 AM 50.0 °F 46.4 °F 87% 29.87 in 4.0 mi Calm Calm - N/A   Mostly Cloudy
2:14 AM 51.8 °F 48.2 °F 88% 29.87 in 4.0 mi Calm Calm - N/A   Mostly Cloudy
2:34 AM 53.6 °F 50.0 °F 88% 29.87 in 4.0 mi Calm Calm - N/A   Scattered Clouds
2:54 AM 51.8 °F 50.0 °F 94% 29.88 in 5.0 mi Calm Calm - N/A   Scattered Clouds
3:34 AM 53.6 °F 50.0 °F 88% 29.89 in 5.0 mi Calm Calm - N/A   Scattered Clouds
3:54 AM 53.6 °F 50.0 °F 88% 29.88 in 4.0 mi Calm Calm - N/A   Scattered Clouds
4:14 AM 51.8 °F 48.2 °F 88% 29.88 in 2.5 mi Calm Calm - N/A   Clear
4:34 AM 51.8 °F 48.2 °F 88% 29.88 in 2.5 mi Calm Calm - N/A   Clear
5:14 AM 51.8 °F 48.2 °F 88% 29.89 in 4.0 mi Calm Calm - N/A   Mostly Cloudy
5:34 AM 51.8 °F 50.0 °F 94% 29.89 in 4.0 mi Calm Calm - N/A   Mostly Cloudy
5:54 AM 53.6 °F 51.8 °F 94% 29.90 in 4.0 mi Calm Calm - N/A   Scattered Clouds
6:14 AM 55.4 °F 53.6 °F 94% 29.90 in 4.0 mi Calm Calm - N/A   Scattered Clouds
6:34 AM 57.2 °F 53.6 °F 88% 29.91 in 7.0 mi Calm Calm - N/A   Scattered Clouds
6:54 AM 59.0 °F 55.4 °F 88% 29.91 in 7.0 mi Calm Calm - N/A   Clear
7:14 AM 60.8 °F 57.2 °F 88% 29.91 in 10.0 mi Calm Calm - N/A   Clear
7:34 AM 62.6 °F 57.2 °F 82% 29.91 in 10.0 mi Calm Calm - N/A   Clear
7:54 AM 64.4 °F 60.8 °F 88% 29.91 in 10.0 mi Calm Calm - N/A   Clear
8:14 AM 66.2 °F 60.8 °F 83% 29.91 in 10.0 mi Calm Calm - N/A   Clear
8:34 AM 69.8 °F 59.0 °F 68% 29.92 in 10.0 mi SW 3.5 mph - N/A   Clear
8:54 AM 71.6 °F 60.8 °F 69% 29.92 in 10.0 mi SSW 4.6 mph - N/A   Clear
9:14 AM 71.6 °F 60.8 °F 69% 29.93 in 10.0 mi South 5.8 mph - N/A   Scattered Clouds
9:34 AM 71.6 °F 60.8 °F 69% 29.93 in 10.0 mi SSW 3.5 mph - N/A   Clear
9:56 AM 73.4 °F 59.0 °F 61% 29.93 in 10.0 mi Calm Calm - N/A   Unknown
10:14 AM 73.4 °F 57.2 °F 57% 29.93 in 10.0 mi WSW 3.5 mph - N/A   Clear
10:34 AM 75.2 °F 57.2 °F 53% 29.93 in 10.0 mi WSW 3.5 mph - N/A   Clear
10:54 AM 75.2 °F 57.2 °F 53% 29.94 in 10.0 mi WSW 3.5 mph - N/A   Clear
11:14 AM 75.2 °F 55.4 °F 50% 29.94 in 10.0 mi Calm Calm - N/A   Clear
11:34 AM 75.2 °F 55.4 °F 50% 29.95 in 10.0 mi West 3.5 mph - N/A   Clear
11:54 AM 75.2 °F 53.6 °F 47% 29.96 in 10.0 mi West 5.8 mph - N/A   Clear
12:14 PM 75.2 °F 53.6 °F 47% 29.96 in 10.0 mi West 6.9 mph - N/A   Clear
12:35 PM 77.0 °F 53.6 °F 44% 29.96 in 10.0 mi West 4.6 mph - N/A   Clear
12:54 PM 77.0 °F 53.6 °F 44% 29.96 in 10.0 mi SW 5.8 mph - N/A   Clear
1:14 PM 77.0 °F 53.6 °F 44% 29.96 in 10.0 mi WSW 6.9 mph - N/A   Clear
1:34 PM 78.8 °F 51.8 °F 39% 29.96 in 10.0 mi WSW 6.9 mph - N/A   Clear
1:54 PM 78.8 °F 53.6 °F 42% 29.96 in 10.0 mi WSW 4.6 mph - N/A   Clear
2:14 PM 78.8 °F 53.6 °F 42% 29.96 in 10.0 mi WSW 6.9 mph - N/A   Clear
2:34 PM 78.8 °F 53.6 °F 42% 29.97 in 10.0 mi WSW 4.6 mph - N/A   Clear
2:54 PM 78.8 °F 51.8 °F 39% 29.97 in 10.0 mi West 6.9 mph - N/A   Clear
3:14 PM 78.8 °F 51.8 °F 39% 29.97 in 10.0 mi WNW 5.8 mph - N/A   Clear
3:34 PM 78.8 °F 51.8 °F 39% 29.97 in 10.0 mi West 3.5 mph - N/A   Clear
3:54 PM 78.8 °F 51.8 °F 39% 29.97 in 10.0 mi NW 3.5 mph - N/A   Clear
4:14 PM 77.0 °F 51.8 °F 41% 29.97 in 10.0 mi WNW 3.5 mph - N/A   Clear
4:34 PM 77.0 °F 53.6 °F 44% 29.97 in 10.0 mi Calm Calm - N/A   Clear
4:54 PM 78.8 °F 51.8 °F 39% 29.97 in 10.0 mi Calm Calm - N/A   Clear
5:14 PM 78.8 °F 51.8 °F 39% 29.98 in 10.0 mi Calm Calm - N/A   Clear
5:34 PM 78.8 °F 51.8 °F 39% 29.98 in 10.0 mi Calm Calm - N/A   Clear
5:54 PM 78.8 °F 51.8 °F 39% 29.97 in 10.0 mi WSW 3.5 mph - N/A   Clear
6:14 PM 77.0 °F 51.8 °F 41% 29.97 in 10.0 mi Calm Calm - N/A   Clear
6:34 PM 77.0 °F 53.6 °F 44% 29.97 in 10.0 mi South 3.5 mph - N/A   Scattered Clouds
6:54 PM 77.0 °F 53.6 °F 44% 29.97 in 10.0 mi Calm Calm - N/A   Clear
7:14 PM 75.2 °F 55.4 °F 50% 29.97 in 10.0 mi South 3.5 mph - N/A   Clear
7:34 PM 71.6 °F 53.6 °F 53% 29.98 in 10.0 mi Calm Calm - N/A   Clear
7:54 PM 71.6 °F 53.6 °F 53% 29.98 in 10.0 mi SSW 3.5 mph - N/A   Clear
8:14 PM 69.8 °F 51.8 °F 53% 29.99 in 10.0 mi SSW 6.9 mph - N/A   Clear
8:34 PM 68.0 °F 51.8 °F 56% 29.99 in 10.0 mi Calm Calm - N/A   Clear
8:54 PM 66.2 °F 53.6 °F 64% 29.99 in 10.0 mi Calm Calm - N/A   Clear
9:34 PM 60.8 °F 53.6 °F 77% 30.00 in 10.0 mi Calm Calm - N/A   Clear
9:54 PM 59.0 °F 53.6 °F 82% 30.00 in 10.0 mi Calm Calm - N/A   Clear
10:14 PM 57.2 °F 53.6 °F 88% 30.00 in 10.0 mi Calm Calm - N/A   Clear
10:34 PM 57.2 °F 51.8 °F 82% 29.99 in 10.0 mi Calm Calm - N/A   Clear
10:54 PM 55.4 °F 53.6 °F 94% 30.00 in 10.0 mi Calm Calm - N/A   Clear
11:14 PM 57.2 °F 53.6 °F 88% 30.00 in 10.0 mi Calm Calm - N/A   Clear
11:34 PM 55.4 °F 51.8 °F 88% 30.01 in 10.0 mi Calm Calm - N/A   Clear
11:54 PM 55.4 °F 51.8 °F 88% 30.02 in 10.0 mi Calm Calm - N/A   Clear